Find Kosmos-2571 subsat

NORAD ID: 58428 Int'l Des: 2023-165 Owner: VVKOV Country: RU operational
LEOCIRCULAR

Live Position

Loading 3D Globe...

About Kosmos-2571 subsat

Description loading...

Upcoming Passes

Passes for default location (London). Set your location on the main map for personalized predictions.

Altitude History

Loading altitude history...

Two-Line Element Set

1 58428U 23165D 26104.50320850 .00000012 00000-0 62038-4 0 9996
2 58428 67.1486 82.1373 0013013 354.9844 5.1109 13.97415591121937
Epoch: Apr 14, 2026 • Age: 11 hours

Current Status

Altitude 913.6 km
Velocity 7.39 km/s
Sub-Earth Point 8.47°N, 66.33°E
Launch Date Oct 27, 2023
Age 2.4 years
Type other

Technical Details

Classification Payload
Mass 10.00 kg
Dry Mass 10.00 kg
Total Mass 10.00 kg
Length 0.30 m
Diameter 0.20 m
Span 0.30 m
Shape Box
Manufacturer TSSKBP/ARSLO
Bus Type Unk
Phase Status In Orbit
Owner/State VVKOV/RU

Most Searched